Location: Rokycany
(49.7330°N, 13.6000°E)
Time: 00:10:30
(UTC+02:00)

ISS - Pass Details

Date: 27 March 2019
Orbit: 408 x 410 km, 51.6° (Epoch: 26 April)

Event Time Altitude Azimuth Distance (km) Brightness Sun altitude
Rises 21:44:29 0° 284° (WNW) 2,338 0.9 -28.8°
Reaches altitude 10° 21:46:35 10° 287° (WNW) 1,475 -0.3 -29.0°
Enters shadow 21:47:01 13° 287° (WNW) 1,298 -0.6 -29.1°
